EW6140 Weather Reports


time (UTC)temp
C
wind
direction
speed
KPH
gust
KPH
rain 1hr
cm
rain 24hr
cm
rain mn
cm
humidity
%
barometer
mb
20260831200559 17 0 0.0 0.0 0.00 0.15 0.13 90 1020.0
20260831200111 17 0 0.0 0.0 0.00 0.15 0.13 90 1020.2
20260831195601 17 0 0.0 0.0 0.00 0.15 0.13 90 1020.2
20260831195100 17 0 0.0 0.0 0.00 0.15 0.13 90 1020.3
20260831194615 17 0 0.0 3.2 0.00 0.15 0.13 90 1020.4
20260831194058 17 0 0.0 6.4 0.00 0.15 0.13 89 1020.4
20260831193558 17 0 0.0 6.4 0.00 0.15 0.13 89 1020.5
20260831193106 17 185 0.0 4.8 0.00 0.15 0.13 90 1020.5
20260831192558 17 0 0.0 3.2 0.00 0.15 0.13 89 1020.6
20260831192058 17 0 0.0 8.0 0.00 0.15 0.13 90 1020.8
20260831191605 17 0 0.0 8.0 0.00 0.15 0.13 89 1020.6
20260831191100 17 0 0.0 6.4 0.00 0.15 0.13 90 1020.8
20260831190559 17 0 0.0 6.4 0.00 0.15 0.13 89 1020.6
20260831190110 17 0 0.0 6.4 0.00 0.15 0.13 89 1020.8
20260831185558 17 207 0.0 0.0 0.00 0.15 0.13 90 1020.8
20260831185057 17 0 0.0 0.0 0.00 0.15 0.13 90 1020.9
20260831184600 17 0 0.0 0.0 0.00 0.15 0.13 90 1021.1
20260831184054 17 0 0.0 0.0 0.00 0.15 0.13 90 1020.8
20260831183557 17 0 0.0 0.0 0.03 0.15 0.13 90 1020.9
20260831183118 17 0 0.0 0.0 0.03 0.15 0.13 90 1021.0
20260831182555 17 0 0.0 0.0 0.03 0.15 0.13 90 1021.1
20260831182057 17 0 0.0 0.0 0.03 0.15 0.13 90 1021.2
20260831181606 17 0 0.0 0.0 0.03 0.15 0.13 90 1021.4
20260831181054 17 0 0.0 0.0 0.03 0.15 0.13 90 1021.5
20260831180558 17 0 0.0 0.0 0.05 0.15 0.13 90 1021.5
20260831180115 17 0 0.0 0.0 0.05 0.15 0.13 90 1021.6
20260831175558 17 0 0.0 1.6 0.05 0.15 0.13 90 1021.6
20260831175058 17 0 0.0 1.6 0.05 0.15 0.13 90 1021.5
20260831174559 17 0 0.0 3.2 0.05 0.15 0.13 90 1021.5
20260831174100 17 0 0.0 3.2 0.05 0.15 0.13 90 1021.5
20260831173558 17 0 0.0 3.2 0.03 0.13 0.10 90 1021.5
20260831173107 17 0 0.0 3.2 0.03 0.13 0.10 90 1021.5
20260831172554 17 0 0.0 1.6 0.03 0.13 0.10 90 1021.4
20260831172057 17 0 0.0 0.0 0.03 0.13 0.10 90 1021.6
20260831171602 17 0 0.0 0.0 0.03 0.13 0.10 90 1021.7
20260831171054 17 0 0.0 0.0 0.03 0.13 0.10 90 1021.8
20260831170554 17 0 0.0 0.0 0.00 0.10 0.08 90 1021.8
20260831165600 17 0 0.0 3.2 0.00 0.10 0.08 89 1022.0
20260831165053 17 0 0.0 4.8 0.03 0.10 0.08 89 1021.9
20260831164600 17 0 0.0 6.4 0.03 0.10 0.08 89 1022.0
20260831164057 17 0 0.0 6.4 0.03 0.10 0.08 89 1022.1
20260831163557 17 0 0.0 4.8 0.05 0.10 0.08 89 1022.0
20260831163110 17 0 0.0 3.2 0.05 0.10 0.08 89 1022.0
20260831162558 17 0 0.0 3.2 0.08 0.10 0.08 89 1022.1
20260831162057 17 0 0.0 0.0 0.08 0.10 0.08 89 1022.1
20260831161605 17 0 0.0 0.0 0.08 0.10 0.08 90 1022.1
20260831161056 17 0 0.0 0.0 0.08 0.10 0.08 90 1022.1
20260831160659 17 0 0.0 0.0 0.08 0.10 0.08 89 1022.1
20260831160107 17 0 0.0 1.6 0.08 0.10 0.08 89 1022.1
20260831155559 17 0 0.0 1.6 0.08 0.10 0.08 89 1022.2
20260831155102 17 0 0.0 0.0 0.05 0.08 0.05 88 1022.3
20260831154631 17 0 0.0 0.0 0.05 0.08 0.05 88 1022.3
20260831154058 17 0 0.0 0.0 0.05 0.08 0.05 87 1022.3
20260831153557 17 0 0.0 0.0 0.03 0.05 0.03 88 1022.4
20260831153105 17 0 0.0 1.6 0.03 0.05 0.03 87 1022.3
20260831152559 18 0 0.0 1.6 0.00 0.03 0.00 87 1022.4
20260831152058 18 0 0.0 6.4 0.00 0.03 0.00 86 1022.3
20260831151600 18 0 0.0 6.4 0.00 0.03 0.00 85 1022.1
20260831151100 18 169 0.0 4.8 0.00 0.03 0.00 85 1022.1
20260831150600 18 0 0.0 3.2 0.00 0.03 0.00 85 1022.0
20260831150112 18 0 0.0 3.2 0.00 0.03 0.00 86 1022.1
20260831145601 18 0 0.0 0.0 0.00 0.03 0.00 85 1022.0
20260831145101 18 0 0.0 0.0 0.00 0.03 0.00 86 1022.0
20260831144607 18 0 0.0 0.0 0.00 0.03 0.00 87 1022.0
20260831144058 18 0 0.0 0.0 0.00 0.03 0.00 88 1022.1
20260831143559 18 0 0.0 0.0 0.00 0.03 0.00 87 1022.3
20260831143112 18 0 0.0 0.0 0.00 0.03 0.00 87 1022.3
20260831142558 18 0 0.0 0.0 0.00 0.03 0.00 87 1022.3
20260831142058 18 0 0.0 3.2 0.00 0.03 0.00 87 1022.2
20260831141611 18 0 0.0 6.4 0.00 0.03 0.00 87 1022.1
20260831141104 17 0 0.0 6.4 0.00 0.03 0.00 88 1022.1
20260831140558 17 0 0.0 6.4 0.00 0.03 0.00 88 1022.0
20260831140105 17 0 0.0 6.4 0.00 0.03 0.00 89 1022.0
20260831135558 17 0 0.0 6.4 0.00 0.03 0.00 89 1021.9
20260831135058 17 0 0.0 0.0 0.00 0.03 0.00 89 1022.0
20260831134605 17 0 0.0 3.2 0.00 0.03 0.00 91 1022.2
20260831134057 17 0 0.0 3.2 0.00 0.03 0.00 91 1022.1
20260831133558 17 0 0.0 3.2 0.00 0.03 0.00 92 1022.0
20260831133106 16 0 0.0 1.6 0.00 0.03 0.00 92 1021.9
20260831132558 16 0 0.0 1.6 0.00 0.03 0.00 92 1021.9
20260831132058 16 0 0.0 4.8 0.00 0.03 0.00 92 1022.0
20260831131607 16 0 0.0 4.8 0.00 0.03 0.00 92 1022.1
20260831131059 16 203 0.0 4.8 0.00 0.03 0.00 92 1022.1
20260831130559 16 0 0.0 4.8 0.00 0.03 0.00 92 1022.1
20260831130108 16 0 0.0 3.2 0.00 0.03 0.00 92 1022.3
20260831125558 16 0 0.0 3.2 0.00 0.03 0.00 92 1022.3
20260831125058 16 0 0.0 3.2 0.00 0.03 0.00 92 1022.3
20260831124604 -17 0.0 0.0 0.00 0.03 0.00 1022.2
20260831124059 -17 0.0 0.0 0.00 0.03 0.00 1022.3
20260831123559 -17 0.0 0.0 0.00 0.03 0.00 1022.3
20260831123108 -17 0.0 0.0 0.00 0.03 0.00 1022.3
20260831122603 -17 0.0 0.0 0.00 0.03 0.00 1022.4
20260831122058 -17 0.0 0.0 0.00 0.03 0.00 1022.4
20260831121603 -17 0.0 0.0 0.00 0.03 0.00 1022.4
20260831121101 -17 0.0 0.0 0.00 0.03 0.00 1022.4
20260831120558 -17 0.0 0.0 0.00 0.03 0.00 1022.5
20260831120129 -17 0.0 0.0 0.00 0.03 0.00 1022.3
20260831115558 -17 0.0 0.0 0.00 0.03 0.00 1022.4
20260831115059 -17 0.0 0.0 0.00 0.03 0.00 1022.4
20260831114608 -17 0.0 0.0 0.00 0.03 0.00 1022.4
20260831114058 -17 0.0 0.0 0.00 0.03 0.00 1022.4
20260831113558 -17 0.0 0.0 0.00 0.03 0.00 1022.4
20260831113107 -17 0.0 0.0 0.00 0.03 0.00 1022.4
20260831112600 -17 0.0 0.0 0.00 0.03 0.00 1022.4
20260831112058 -17 0.0 0.0 0.00 0.03 0.00 1022.5
20260831111615 -17 0.0 0.0 0.00 0.03 0.00 1022.4
20260831111057 -17 0.0 0.0 0.00 0.03 0.00 1022.3
20260831110600 -17 0.0 0.0 0.00 0.03 0.00 1022.2
20260831110105 -17 0.0 0.0 0.00 0.03 0.00 1022.3
20260831105558 -17 0.0 0.0 0.00 0.03 0.00 1022.1
20260831105100 -17 0.0 0.0 0.00 0.03 0.00 1022.0
20260831104604 -17 0.0 0.0 0.00 0.03 0.00 1022.0
20260831104059 -17 0.0 0.0 0.00 0.03 0.00 1022.0
20260831103558 -17 0.0 0.0 0.00 0.03 0.00 1022.0
20260831103107 -17 0.0 0.0 0.00 0.03 0.00 1021.8
20260831102558 -17 0.0 0.0 0.00 0.03 0.00 1021.7
20260831102059 -17 0.0 0.0 0.00 0.03 0.00 1021.8
20260831101602 -17 0.0 0.0 0.00 0.03 0.00 1021.8
20260831101058 -17 0.0 0.0 0.00 0.03 0.00 1021.7
20260831100601 -17 0.0 0.0 0.00 0.03 0.00 1021.7
20260831100115 -17 0.0 0.0 0.00 0.03 0.00 1021.6
20260831095559 -17 0.0 0.0 0.00 0.03 0.00 1021.6
20260831095059 -17 0.0 0.0 0.00 0.03 0.00 1021.7
20260831094606 -17 0.0 0.0 0.00 0.03 0.00 1021.7
20260831094058 -17 0.0 0.0 0.00 0.03 0.00 1021.7
20260831093558 -17 0.0 0.0 0.00 0.03 0.00 1021.6
20260831093105 -17 0.0 0.0 0.00 0.03 0.00 1021.6
20260831092558 -17 0.0 0.0 0.00 0.03 0.00 1021.5
20260831092058 -17 0.0 0.0 0.00 0.03 0.00 1021.6
20260831091606 -17 0.0 0.0 0.00 0.03 0.00 1021.7
20260831091058 -17 0.0 0.0 0.00 0.03 0.00 1021.6
20260831090557 -17 0.0 0.0 0.00 0.03 0.00 1021.5
20260831090109 -17 0.0 0.0 0.00 0.03 0.00 1021.6
20260831085601 -17 0.0 0.0 0.00 0.03 0.00 1021.6
20260831085059 -17 0.0 0.0 0.00 0.03 0.00 1021.5
20260831084610 -17 0.0 0.0 0.00 0.03 0.00 1021.5
20260831084058 -17 0.0 0.0 0.00 0.03 0.00 1021.4
20260831083559 -17 0.0 0.0 0.00 0.03 0.00 1021.4
20260831083104 -17 0.0 0.0 0.00 0.03 0.00 1021.6
20260831082557 -17 0.0 0.0 0.00 0.03 0.00 1021.6
20260831082058 -17 0.0 0.0 0.00 0.03 0.00 1021.6
20260831081609 -17 0.0 0.0 0.00 0.03 0.00 1021.7
20260831081059 -17 0.0 0.0 0.00 0.03 0.00 1021.6
20260831080557 -17 0.0 0.0 0.00 0.03 0.00 1021.5
20260831080139 -17 0.0 0.0 0.00 0.03 0.00 1021.4
20260831075558 -17 0.0 0.0 0.00 0.03 0.00 1021.6
20260831075058 -17 0.0 0.0 0.00 0.03 0.00 1021.4
20260831074610 -17 0.0 0.0 0.00 0.03 0.00 1021.5
20260831074058 -17 0.0 0.0 0.00 0.03 0.00 1021.5
20260831073558 -17 0.0 0.0 0.00 0.03 0.00 1021.6
20260831073117 -17 0.0 0.0 0.00 0.03 0.00 1021.6
20260831072558 -17 0.0 0.0 0.00 0.03 0.00 1021.4
20260831072057 -17 0.0 0.0 0.00 0.03 0.00 1021.6
20260831071610 -17 0.0 0.0 0.00 0.03 0.00 1021.6
20260831071101 -17 0.0 0.0 0.00 0.03 0.00 1021.6
20260831070559 -17 0.0 0.0 0.00 0.03 0.00 1021.7
20260831070108 -17 0.0 0.0 0.00 0.03 0.00 1021.6
20260831065558 -17 0.0 0.0 0.00 0.03 0.00 1021.6
20260831065058 -17 0.0 0.0 0.00 0.03 0.00 1021.9
20260831064608 -17 0.0 0.0 0.00 0.03 0.00 1021.9
20260831064059 -17 0.0 0.0 0.00 0.03 0.00 1021.7
20260831063628 -17 0.0 0.0 0.00 0.03 0.00 1021.6
20260831063106 -17 0.0 0.0 0.00 0.03 0.00 1021.7
20260831062558 -17 0.0 0.0 0.00 0.03 0.00 1021.7
20260831062059 -17 0.0 0.0 0.00 0.03 0.00 1021.8
20260831061605 -17 0.0 0.0 0.00 0.03 0.00 1021.8
20260831061059 -17 0.0 0.0 0.00 0.03 0.00 1021.9
20260831060557 -17 0.0 0.0 0.00 0.03 0.00 1021.9
20260831060109 -17 0.0 0.0 0.00 0.03 0.00 1022.0
20260831055558 -17 0.0 0.0 0.00 0.03 0.00 1022.0
20260831055058 -17 0.0 0.0 0.00 0.03 0.00 1021.9
20260831054609 -17 0.0 0.0 0.00 0.03 0.00 1021.9
20260831054058 -17 0.0 0.0 0.00 0.03 0.00 1022.0
20260831053559 -17 0.0 0.0 0.00 0.03 0.00 1022.1
20260831053107 -17 0.0 0.0 0.00 0.03 0.00 1022.2
20260831052559 -17 0.0 0.0 0.00 0.03 0.00 1022.1
20260831052102 -17 0.0 0.0 0.00 0.03 0.00 1022.1
20260831051603 -17 0.0 0.0 0.00 0.03 0.00 1022.2
20260831051057 -17 0.0 0.0 0.00 0.03 0.00 1022.1
20260831050558 -17 0.0 0.0 0.00 0.03 0.00 1022.4
20260831050103 -17 0.0 0.0 0.00 0.03 0.00 1022.3
20260831045559 -17 0.0 0.0 0.00 0.03 0.00 1022.2
20260831045056 -17 0.0 0.0 0.00 0.03 0.00 1022.2
20260831044607 -17 0.0 0.0 0.00 0.03 0.00 1022.0
20260831044057 -17 0.0 0.0 0.00 0.03 0.00 1022.1
20260831043558 -17 0.0 0.0 0.00 0.03 0.00 1022.2
20260831043104 -17 0.0 0.0 0.00 0.03 0.00 1022.3
20260831042558 -17 0.0 0.0 0.00 0.03 0.00 1022.4
20260831042058 -17 0.0 0.0 0.00 0.03 0.00 1022.3
20260831041610 -17 0.0 0.0 0.00 0.03 0.00 1022.3
20260831041105 -17 0.0 0.0 0.00 0.03 0.00 1022.3
20260831040559 -17 0.0 0.0 0.00 0.03 0.00 1022.4
20260831040107 -17 0.0 0.0 0.00 0.03 0.00 1022.2
20260831035602 -17 0.0 0.0 0.00 0.03 0.03 1022.1
20260831035057 -17 0.0 0.0 0.00 0.03 0.03 1022.1
20260831034615 -17 0.0 0.0 0.00 0.03 0.03 1022.1
20260831034058 -17 0.0 0.0 0.00 0.03 0.03 1022.1
20260831033602 -17 0.0 0.0 0.00 0.03 0.03 1022.2
20260831033102 -17 0.0 0.0 0.00 0.03 0.03 1022.2
20260831032558 -17 0.0 0.0 0.00 0.03 0.03 1022.2
20260831032057 -17 0.0 0.0 0.00 0.03 0.03 1022.1
20260831031605 -17 0.0 0.0 0.00 0.03 0.03 1022.2
20260831031058 -17 0.0 0.0 0.00 0.03 0.03 1022.2
20260831030600 -17 0.0 0.0 0.00 0.03 0.03 1022.2
20260831030111 -17 0.0 0.0 0.00 0.03 0.03 1022.2
20260831025558 -17 0.0 0.0 0.00 0.03 0.03 1022.3
20260831025058 -17 0.0 0.0 0.00 0.03 0.03 1022.2
20260831024609 -17 0.0 0.0 0.00 0.03 0.03 1022.2
20260831024058 -17 0.0 0.0 0.00 0.03 0.03 1022.1
20260831023558 -17 0.0 0.0 0.00 0.03 0.03 1022.1
20260831023101 -17 0.0 0.0 0.00 0.03 0.03 1022.1
20260831022600 -17 0.0 0.0 0.00 0.03 0.03 1021.9
20260831022056 -17 0.0 0.0 0.00 0.03 0.03 1022.0
20260831021605 -17 0.0 0.0 0.00 0.03 0.03 1021.9
20260831021101 -17 0.0 0.0 0.00 0.03 0.03 1021.8
20260831020558 -17 0.0 0.0 0.00 0.03 0.03 1021.8
20260831020105 -17 0.0 0.0 0.00 0.03 0.03 1021.7
20260831015601 -17 0.0 0.0 0.00 0.03 0.03 1021.7
20260831015056 -17 0.0 0.0 0.00 0.03 0.03 1021.7
20260831014606 -17 0.0 0.0 0.00 0.03 0.03 1021.9
20260831014058 -17 0.0 0.0 0.00 0.03 0.03 1021.9
20260831013558 -17 0.0 0.0 0.00 0.03 0.03 1021.9
20260831013114 -17 0.0 0.0 0.00 0.03 0.03 1022.0
20260831012559 -17 0.0 0.0 0.00 0.03 0.03 1022.0
20260831012059 -17 0.0 0.0 0.00 0.03 0.03 1022.0
20260831011608 -17 0.0 0.0 0.00 0.03 0.03 1022.1
20260831011057 -17 0.0 0.0 0.00 0.03 0.03 1022.0
20260831010557 -17 0.0 0.0 0.00 0.03 0.03 1022.0
20260831010123 -17 0.0 0.0 0.00 0.03 0.03 1021.9
20260831005558 -17 0.0 0.0 0.00 0.03 0.03 1021.9
20260831005059 -17 0.0 0.0 0.00 0.03 0.03 1021.8
20260831004611 -17 0.0 0.0 0.00 0.03 0.03 1021.7
20260831004101 -17 0.0 0.0 0.00 0.03 0.03 1021.6
20260831003602 -17 0.0 0.0 0.00 0.03 0.03 1021.4
20260831003107 -17 0.0 0.0 0.00 0.03 0.03 1021.4
20260831002557 -17 0.0 0.0 0.00 0.03 0.03 1021.2
20260831002058 -17 0.0 0.0 0.00 0.03 0.03 1021.1
20260831001603 -17 0.0 0.0 0.00 0.03 0.03 1020.9
20260831001055 -17 0.0 0.0 0.00 0.03 0.03 1020.9
20260831000558 -17 0.0 0.0 0.00 0.03 0.03 1020.8
20260831000101 -17 0.0 0.0 0.00 0.03 0.03 1020.7
20260830235602 -17 0.0 0.0 0.00 0.03 0.03 1020.7
20260830235059 -17 0.0 0.0 0.00 0.03 0.03 1020.6
20260830234610 -17 0.0 0.0 0.00 0.03 0.03 1020.7
20260830234057 -17 0.0 0.0 0.00 0.03 0.03 1020.6
20260830233557 -17 0.0 0.0 0.00 0.03 0.03 1020.5
20260830233106 -17 0.0 0.0 0.00 0.03 0.03 1020.5
20260830232558 -17 0.0 0.0 0.00 0.03 0.03 1020.4
20260830232055 -17 0.0 0.0 0.00 0.03 0.03 1020.5
20260830231602 -17 0.0 0.0 0.00 0.03 0.03 1020.5
20260830231058 -17 0.0 0.0 0.00 0.03 0.03 1020.4
20260830230558 -17 0.0 0.0 0.00 0.03 0.03 1020.4
20260830230106 -17 0.0 0.0 0.00 0.03 0.03 1020.5
20260830225558 -17 0.0 0.0 0.00 0.03 0.03 1020.5
20260830225059 -17 0.0 0.0 0.00 0.03 0.03 1020.5
20260830224609 -17 0.0 0.0 0.00 0.03 0.03 1020.5
20260830224058 -17 0.0 0.0 0.00 0.03 0.03 1020.4
20260830223557 -17 0.0 0.0 0.00 0.03 0.03 1020.5
20260830223106 -17 0.0 0.0 0.00 0.03 0.03 1020.5
20260830222556 -17 0.0 0.0 0.00 0.03 0.03 1020.4
20260830222055 -17 0.0 0.0 0.00 0.03 0.03 1020.4
20260830221608 -17 0.0 0.0 0.00 0.03 0.03 1020.5
20260830221055 -17 0.0 0.0 0.00 0.03 0.03 1020.4
20260830220558 -17 0.0 0.0 0.00 0.03 0.03 1020.7
20260830220110 -17 0.0 0.0 0.03 0.03 0.03 1020.4
20260830215603 17 0.0 0.0 0.03 0.03 0.03 88 1020.4
20260830215101 17 0.0 0.0 0.03 0.03 0.03 88 1020.3
20260830214605 17 0 0.0 0.0 0.03 0.03 0.03 88 1020.3
20260830214057 17 0 0.0 0.0 0.03 0.03 0.03 88 1020.5
20260830213557 17 0 0.0 0.0 0.03 0.03 0.03 88 1020.4
20260830213111 17 0.0 0.0 0.03 0.03 0.03 88 1020.5
20260830212559 17 0 0.0 0.0 0.03 0.03 0.03 88 1020.5
20260830212059 17 0 0.0 3.2 0.03 0.03 0.03 88 1020.4
20260830211619 17 0 0.0 3.2 0.03 0.03 0.03 88 1020.6
20260830211059 17 0 0.0 3.2 0.03 0.03 0.03 88 1020.7
20260830210559 17 0 0.0 0.0 0.03 0.03 0.03 88 1020.8
20260830210105 17 0 0.0 0.0 0.00 0.00 0.00 88 1020.8
20260830205556 17 0 0.0 0.0 0.00 0.00 0.00 87 1020.6
20260830205055 17 0 0.0 0.0 0.00 0.00 0.00 87 1020.6
20260830204604 17 0 0.0 0.0 0.00 0.00 0.00 87 1020.5
20260830204056 17 0 0.0 0.0 0.00 0.00 0.00 87 1020.5
20260830203555 17 0 0.0 0.0 0.00 0.00 0.00 87 1020.5
20260830203107 17 0 0.0 0.0 0.00 0.00 0.00 87 1020.5
20260830202559 17 0 0.0 1.6 0.00 0.00 0.00 87 1020.6
20260830202058 17 0 0.0 1.6 0.00 0.00 0.00 87 1020.7
20260830201608 17 0 0.0 0.0 0.00 0.00 0.00 87 1020.7
20260830201101 17 0 0.0 0.0 0.00 0.00 0.00 86 1020.8